User: anonymous   Login
Location: Unspecified
(0.0000°N, 0.0000°E)
Time: 19:58:58
(UTC+00:00)
Language:

TOPSAT - Orbit

View from above orbital plane
View from above orbital plane
View from above satellite
View from above satellite

Ground track
Ground track

The orbit data is extracted from the following two-line orbital elements,

1 28891U 05043B   17144.91557476 +.00000085 +00000-0 +26137-4 0  9997
2 28891 097.8817 301.4765 0015694 226.6435 133.3461 14.61268599616958
Epoch (UTC): 24 May 2017 21:58:25
Eccentricity: 0.0015694
inclination: 97.8817°
perigee height: 678 km
apogee height: 700 km
right ascension of ascending node: 301.4765°
argument of perigee: 226.6435°
revolutions per day: 14.61268599
mean anomaly at epoch: 133.3461°
orbit number at epoch: 61695

The dashed part of the orbit path shows where the satellite is in the earth's shadow,  

DLR